TimeEDT,TemperatureF,Dew PointF,Humidity,Sea Level PressureIn,VisibilityMPH,Wind Direction,Wind SpeedMPH,Gust SpeedMPH,PrecipitationIn,Events,Conditions,WindDirDegrees,DateUTC
12:56 AM,60.1,54.0,80,30.14,10.0,Calm,Calm,-,N/A,,Mostly Cloudy,0,2012-10-25 04:56:00
1:56 AM,59.0,54.0,83,30.14,10.0,ESE,4.6,-,N/A,,Mostly Cloudy,120,2012-10-25 05:56:00
2:56 AM,62.1,52.0,70,30.14,10.0,South,5.8,-,N/A,,Overcast,180,2012-10-25 06:56:00
3:56 AM,59.0,52.0,78,30.13,10.0,Calm,Calm,-,N/A,,Clear,0,2012-10-25 07:56:00
4:56 AM,57.0,52.0,83,30.14,10.0,Calm,Calm,-,N/A,,Clear,0,2012-10-25 08:56:00
5:56 AM,57.9,52.0,81,30.15,10.0,Calm,Calm,-,N/A,,Clear,0,2012-10-25 09:56:00
6:56 AM,57.0,51.1,81,30.16,10.0,Calm,Calm,-,N/A,,Clear,0,2012-10-25 10:56:00
7:56 AM,59.0,50.0,72,30.16,10.0,South,4.6,-,N/A,,Mostly Cloudy,170,2012-10-25 11:56:00
9:56 AM,66.0,52.0,60,30.16,10.0,SSE,3.5,-,N/A,,Clear,160,2012-10-25 13:56:00
10:56 AM,70.0,51.1,51,30.16,10.0,South,9.2,-,N/A,,Clear,190,2012-10-25 14:56:00
11:56 AM,73.0,51.1,46,30.16,10.0,South,13.8,19.6,N/A,,Clear,190,2012-10-25 15:56:00
12:56 PM,75.0,51.1,43,30.13,10.0,South,9.2,-,N/A,,Clear,190,2012-10-25 16:56:00
1:56 PM,75.9,50.0,40,30.10,10.0,South,11.5,18.4,N/A,,Clear,180,2012-10-25 17:56:00
2:56 PM,77.0,51.1,40,30.08,10.0,SSW,13.8,19.6,N/A,,Clear,200,2012-10-25 18:56:00
3:56 PM,77.0,51.1,40,30.08,10.0,SSE,8.1,16.1,N/A,,Clear,160,2012-10-25 19:56:00
4:56 PM,75.9,51.1,42,30.08,10.0,South,9.2,18.4,N/A,,Clear,170,2012-10-25 20:56:00
5:56 PM,72.0,51.1,48,30.07,10.0,South,12.7,17.3,N/A,,Clear,170,2012-10-25 21:56:00
6:56 PM,68.0,53.1,59,30.09,10.0,SSE,10.4,-,N/A,,Clear,160,2012-10-25 22:56:00
7:56 PM,64.9,53.1,65,30.10,10.0,South,11.5,19.6,N/A,,Clear,170,2012-10-25 23:56:00
9:56 PM,59.0,52.0,78,30.10,9.0,SE,5.8,-,N/A,,Clear,140,2012-10-26 01:56:00
10:56 PM,57.0,52.0,83,30.09,8.0,SSE,12.7,21.9,N/A,,Clear,160,2012-10-26 02:56:00
11:56 PM,57.0,51.1,81,30.09,8.0,South,12.7,21.9,N/A,,Mostly Cloudy,170,2012-10-26 03:56:00